Flag for Germany Weather past 2 weeks in Freiburg, Baden-Württemberg, Germany

Now
64 °F

Fog.


Feels Like: 64 °F
Forecast: 57 / 82 °F
Wind: 2 mph from Northwest

Location: Freiburg

Current Time: Jul 31, 2014 at 9:54:59 AM

Latest Report: Jul 31, 2014 at 9:00 AM


Visibility: 3 mi

Pressure: 30.01 "Hg

Humidity: 97%

Dew point: 63 °F

Location of FreiburgLocation

Historic Weather in Freiburg — Graph

°F

Freiburg temperature yesterday

Maximum temperature yesterday: 68 °F (at 4:00 PM)
Minimum temperature yesterday: 61 °F (at 6:00 AM)
Average temperature yesterday: 64 °F

Past Weeks' High & Low Weather Summary

 TemperatureHumidityPressure
High90 °F (Jul 18, 6:00 PM)98% (Jul 31, 6:00 AM)30.20 "Hg (Jul 31, 6:00 AM)
Low54 °F (Jul 25, 6:00 AM)28% (Jul 18, 6:00 PM)29.78 "Hg (Jul 28, 4:00 PM)
Average69 °F78%29.94 "Hg
* Reported Jul 16 7:00 AM — Jul 31 7:00 AM, Freiburg, Weather by CustomWeather, © 2014

Note: Actual official high and low records may vary slightly from our data, if they occured in-between our weather recording intervals... More about our weather records

Advertising

Freiburg weather history for previous 24 hours

 ConditionsComfort  
Time TempWeatherWind HumidityBarometerVisibility
7:00 AM
Jul 31
59 °FLow clouds.1 mph98%30.02 "Hg1 mi
6:00 AM59 °FDense fog.1 mph98%30.01 "Hg0 mi
4:00 AM61 °FOvercast.1 mph97%29.99 "Hg0 mi
3:00 AM64 °FFog.1 mph97%29.98 "Hg2 mi
1:00 AM65 °FFog.1 mph95%29.98 "Hg3 mi
12:00 AM65 °FOvercast.1 mph92%29.97 "Hg6 mi
10:00 PM
Jul 30
65 °FDrizzle. Overcast.1 mph94%29.96 "Hg3 mi
9:00 PM65 °FRain. Dense fog.3 mph95%29.93 "Hg1 mi
7:00 PM68 °FOvercast.1 mph89%29.90 "Hg13 mi
6:00 PM67 °FLow clouds.1 mph94%29.90 "Hg14 mi
5:00 PM68 °FLight rain. Low clouds.2 mph88%29.89 "Hg12 mi
4:00 PM68 °FLow clouds.2 mph86%29.88 "Hg19 mi
3:00 PM67 °FOvercast.2 mph90%29.88 "Hg43 mi
1:00 PM65 °FLow clouds.2 mph93%29.86 "Hg14 mi
12:00 PM64 °FDrizzle. Overcast.1 mph91%29.86 "Hg8 mi
10:00 AM63 °FOvercast.2 mph92%29.85 "Hg43 mi
9:00 AM63 °FOvercast.3 mph91%29.83 "Hg43 mi
Weather by CustomWeather, © 2014

See weather overviewHow to use our weather pages